Northeast Philadelphia, PA

1:21 AM EDT on October 16, 2019 (GMT -0400)
Northeast Philadelphia

Weather History for KPNE - August, 2019

Change the Weather History Date:

Saturday, August 24, 2019

  Actual Average Record
Temperature  
Mean Temperature 72 °F -  
Max Temperature 81 °F 82 °F 96 °F (2012)
Min Temperature 63 °F 64 °F 55 °F (1997)
Cooling Degree Days 6    
Growing Degree Days 22 (Base 50)    
Moisture  
Dew Point 52 °F    
Average Humidity 56    
Maximum Humidity 73    
Minimum Humidity 34    
Precipitation  
Precipitation 0.00 in - - ()
Sea Level Pressure  
Sea Level Pressure 30.17 in    
Wind  
Wind Speed 7 mph ()    
Max Wind Speed 10 mph    
Max Gust Speed -    
Visibility 10.0 miles    
Events      
Averages and records for this station are not official NWS values.
T = Trace of Precipitation, MM = Missing Value Source: Averaged Metar Reports

Daily Weather History Graph

Daily Weather History Graph

Search for Another Location

Airport or City:

Astronomy

Aug. 24, 2019 Rise Set
Actual Time 6:19 AM EDT 7:44 PM EDT
Civil Twilight 5:51 AM EDT 8:12 PM EDT
Nautical Twilight 5:17 AM EDT 8:46 PM EDT
Astronomical Twilight 4:41 AM EDT 9:22 PM EDT
Moon 12:11 AM EDT (8/24) 2:57 PM EDT (8/24)
Length of Visible Light 14h 21m
Length of Day
13h 24m
Last Quarter, 39% of the Moon is Illuminated
Aug 24
Last Quarter
Aug 30
New
Sep 5
First Quarter
Sep 14
Full
Sep 21
Last Quarter

Hourly Weather History & Observations

Time (EDT) Temp. Dew Point Humidity Pressure Visibility Wind Dir Wind Speed Gust Speed Precip Events Conditions
12:54 AM 64.9 °F 55.9 °F 73% 30.09 in 10.0 mi NNW 9.2 mph - N/A   Clear
1:54 AM 64.0 °F 55.0 °F 73% 30.09 in 10.0 mi NNW 6.9 mph - N/A   Clear
2:54 AM 64.0 °F 54.0 °F 70% 30.09 in 10.0 mi North 8.1 mph - N/A   Clear
3:54 AM 64.0 °F 54.0 °F 70% 30.10 in 10.0 mi North 10.4 mph - N/A   Clear
4:54 AM 63.0 °F 53.1 °F 70% 30.12 in 10.0 mi North 9.2 mph - N/A   Mostly Cloudy
5:54 AM 63.0 °F 53.1 °F 70% 30.13 in 10.0 mi North 6.9 mph - N/A   Partly Cloudy
6:54 AM 64.0 °F 53.1 °F 67% 30.16 in 10.0 mi North 8.1 mph - N/A   Mostly Cloudy
7:54 AM 64.0 °F 54.0 °F 70% 30.18 in 10.0 mi North 6.9 mph - N/A   Clear
8:54 AM 66.9 °F 54.0 °F 63% 30.20 in 10.0 mi NNE 6.9 mph - N/A   Overcast
9:54 AM 69.1 °F 55.0 °F 61% 30.20 in 10.0 mi NNE 9.2 mph - N/A   Overcast
10:54 AM 73.0 °F 55.0 °F 53% 30.20 in 10.0 mi NE 10.4 mph - N/A   Mostly Cloudy
11:54 AM 75.9 °F 52.0 °F 43% 30.20 in 10.0 mi NE 10.4 mph - N/A   Partly Cloudy
12:54 PM 75.0 °F 48.9 °F 40% 30.19 in 10.0 mi North 4.6 mph - N/A   Mostly Cloudy
1:54 PM 77.0 °F 48.9 °F 37% 30.19 in 10.0 mi NW 4.6 mph - N/A   Mostly Cloudy
2:54 PM 80.1 °F 48.9 °F 34% 30.17 in 10.0 mi North 8.1 mph - N/A   Scattered Clouds
3:54 PM 75.9 °F 48.9 °F 38% 30.17 in 10.0 mi NNW 9.2 mph - N/A   Mostly Cloudy
4:54 PM 78.1 °F 48.9 °F 36% 30.17 in 10.0 mi NNE 6.9 mph - N/A   Partly Cloudy
5:54 PM 77.0 °F 46.9 °F 34% 30.18 in 10.0 mi NNE 6.9 mph - N/A   Mostly Cloudy
6:54 PM 73.9 °F 48.9 °F 41% 30.18 in 10.0 mi NE 9.2 mph - N/A   Clear
7:54 PM 70.0 °F 51.1 °F 51% 30.20 in 10.0 mi NE 5.8 mph - N/A   Clear
8:54 PM 66.9 °F 52.0 °F 59% 30.22 in 10.0 mi NNE 5.8 mph - N/A   Clear
9:54 PM 66.0 °F 52.0 °F 60% 30.23 in 10.0 mi NNE 4.6 mph - N/A   Clear
10:54 PM 64.9 °F 52.0 °F 63% 30.25 in 10.0 mi North 3.5 mph - N/A   Clear
11:54 PM 64.0 °F 52.0 °F 65% 30.25 in 10.0 mi Calm Calm - N/A   Clear